Orbital Elements at Epoch 2459200.5 (2020-Dec-17.0) TDB
Reference: JPL 14 (heliocentric ecliptic J2000)
Element | Value | Uncertainty (1-sigma) | Units |
e | .1052166256159621 | 6.1552e-08 | |
a | 2.405789949012741 | 1.3479e-08 | au |
q | 2.152660848636823 | 1.4715e-07 | au |
i | 4.044506668859468 | 5.7772e-06 | deg |
node | 191.7117358873366 | 8.3189e-05 | deg |
peri | 309.3179665108397 | 8.6716e-05 | deg |
M | 188.0320343010795 | 2.5005e-05 | deg |
tp | 2459851.573530074001 (2022-Sep-29.07353007) | 9.6649e-05 | TDB |
period | 1362.965886547738 3.73 | 1.1455e-05 3.136e-08 | d yr |
n | .2641298682183788 | 2.2198e-09 | deg/d |
Q | 2.658919049388659 | 1.4898e-08 | au |
|
| | Orbit Determination Parameters
Additional Information
|